Hourly Weather Otrada

Today, 23 July, Friday

Time Temperature Precipitation Wind Pressure Humidity
00:00 +18°C° 0 mm 3 mps 742 mmHg 63%
01:00 +17°C° 0 mm 3 mps 742 mmHg 66%
02:00 +16°C° 0 mm 3 mps 742 mmHg 69%
03:00 +14°C° 0 mm 3 mps 742 mmHg 72%
04:00 +14°C° 0 mm 3 mps 742 mmHg 72%
05:00 +14°C° 0 mm 3 mps 742 mmHg 72%
06:00 +15°C° 0 mm 2 mps 743 mmHg 72%
07:00 +17°C° 0 mm 3 mps 743 mmHg 66%
08:00 +19°C° 0 mm 3 mps 743 mmHg 59%
09:00 +20°C° 0 mm 3 mps 743 mmHg 54%
10:00 +22°C° 0 mm 3 mps 743 mmHg 50%
11:00 +24°C° 0 mm 3 mps 743 mmHg 46%
12:00 +25°C° 0 mm 3 mps 743 mmHg 42%
13:00 +25°C° 0 mm 3 mps 743 mmHg 40%
14:00 +25°C° 0 mm 3 mps 742 mmHg 39%
15:00 +26°C° 0 mm 3 mps 742 mmHg 37%
16:00 +26°C° 0 mm 3 mps 742 mmHg 40%
17:00 +26°C° 0 mm 3 mps 742 mmHg 43%
18:00 +25°C° 0 mm 3 mps 742 mmHg 45%
19:00 +22°C° 0 mm 3 mps 742 mmHg 50%
20:00 +21°C° 0 mm 3 mps 742 mmHg 54%
21:00 +19°C° 0 mm 3 mps 743 mmHg 59%
22:00 +18°C° 0 mm 3 mps 743 mmHg 61%
23:00 +18°C° 0 mm 3 mps 743 mmHg 63%

Tomorrow, 24 July, Saturday

Time Temperature Precipitation Wind Pressure Humidity
00:00 +17°C° 0 mm 3 mps 743 mmHg 65%
01:00 +17°C° 0 mm 3 mps 743 mmHg 67%
02:00 +17°C° 0 mm 2 mps 743 mmHg 69%
03:00 +16°C° 0 mm 2 mps 744 mmHg 71%
04:00 +17°C° 0 mm 2 mps 744 mmHg 71%
05:00 +17°C° 0 mm 2 mps 744 mmHg 71%
06:00 +18°C° 0 mm 2 mps 744 mmHg 71%
07:00 +19°C° 0 mm 2 mps 744 mmHg 67%
08:00 +20°C° 0 mm 2 mps 745 mmHg 63%
09:00 +21°C° 0 mm 2 mps 745 mmHg 59%
10:00 +23°C° 0.4 mm 2 mps 745 mmHg 57%
11:00 +23°C° 0.4 mm 2 mps 745 mmHg 56%
12:00 +24°C° 0.4 mm 3 mps 745 mmHg 55%
13:00 +24°C° 0.1 mm 3 mps 746 mmHg 53%
14:00 +24°C° 0.1 mm 3 mps 746 mmHg 52%
15:00 +23°C° 0.1 mm 4 mps 746 mmHg 50%
16:00 +23°C° 0 mm 4 mps 746 mmHg 49%
17:00 +24°C° 0 mm 3 mps 747 mmHg 49%
18:00 +24°C° 0 mm 3 mps 747 mmHg 48%
19:00 +21°C° 0 mm 3 mps 747 mmHg 52%
20:00 +19°C° 0 mm 3 mps 748 mmHg 56%
21:00 +17°C° 0 mm 2 mps 748 mmHg 60%
22:00 +17°C° 0 mm 2 mps 749 mmHg 61%
23:00 +16°C° 0 mm 2 mps 749 mmHg 63%

Day after tomorrow, 25 July, Sunday

Time Temperature Precipitation Wind Pressure Humidity
00:00 +16°C° 0 mm 2 mps 749 mmHg 65%
01:00 +15°C° 0 mm 2 mps 750 mmHg 67%
02:00 +15°C° 0 mm 2 mps 750 mmHg 68%
03:00 +14°C° 0 mm 2 mps 750 mmHg 70%
04:00 +14°C° 0 mm 2 mps 750 mmHg 70%
05:00 +15°C° 0 mm 2 mps 751 mmHg 69%
06:00 +15°C° 0 mm 2 mps 751 mmHg 69%
07:00 +17°C° 0 mm 2 mps 751 mmHg 63%
08:00 +18°C° 0 mm 2 mps 752 mmHg 58%
09:00 +20°C° 0 mm 2 mps 752 mmHg 53%
10:00 +21°C° 0 mm 2 mps 752 mmHg 48%
11:00 +23°C° 0 mm 2 mps 752 mmHg 44%
12:00 +24°C° 0 mm 2 mps 752 mmHg 39%
13:00 +25°C° 0 mm 2 mps 752 mmHg 39%
14:00 +25°C° 0 mm 2 mps 752 mmHg 39%
15:00 +25°C° 0 mm 2 mps 752 mmHg 39%
16:00 +25°C° 0 mm 3 mps 752 mmHg 42%
17:00 +24°C° 0 mm 3 mps 753 mmHg 45%
18:00 +24°C° 0 mm 3 mps 753 mmHg 47%
19:00 +21°C° 0 mm 2 mps 753 mmHg 51%
20:00 +20°C° 0 mm 2 mps 753 mmHg 54%
21:00 +18°C° 0 mm 2 mps 753 mmHg 58%
22:00 +18°C° 0 mm 2 mps 753 mmHg 57%
23:00 +17°C° 0 mm 2 mps 754 mmHg 57%

26 July, Monday

Time Temperature Precipitation Wind Pressure Humidity
00:00 +17°C° 0 mm 2 mps 754 mmHg 57%
01:00 +17°C° 0 mm 2 mps 754 mmHg 58%
02:00 +16°C° 0 mm 2 mps 754 mmHg 59%
03:00 +16°C° 0 mm 1 mps 754 mmHg 60%
04:00 +16°C° 0 mm 1 mps 754 mmHg 61%
05:00 +18°C° 0 mm 1 mps 755 mmHg 63%
06:00 +18°C° 0 mm 1 mps 755 mmHg 64%
07:00 +19°C° 0 mm 1 mps 755 mmHg 58%
08:00 +21°C° 0 mm 1 mps 755 mmHg 53%
09:00 +23°C° 0 mm 1 mps 755 mmHg 47%
10:00 +24°C° 0 mm 1 mps 755 mmHg 44%
11:00 +25°C° 0 mm 1 mps 755 mmHg 41%
12:00 +26°C° 0 mm 1 mps 755 mmHg 37%
13:00 +27°C° 0 mm 1 mps 755 mmHg 36%
14:00 +27°C° 0 mm 1 mps 754 mmHg 35%
15:00 +27°C° 0 mm 1 mps 754 mmHg 34%
16:00 +27°C° 0 mm 1 mps 754 mmHg 36%
17:00 +27°C° 0 mm 1 mps 754 mmHg 38%
18:00 +27°C° 0 mm 1 mps 754 mmHg 40%
19:00 +25°C° 0 mm 2 mps 754 mmHg 44%
20:00 +23°C° 0 mm 2 mps 754 mmHg 48%
21:00 +20°C° 0 mm 2 mps 754 mmHg 52%
22:00 +20°C° 0 mm 1 mps 754 mmHg 55%
23:00 +19°C° 0 mm 1 mps 754 mmHg 57%

27 July, Tuesday

Time Temperature Precipitation Wind Pressure Humidity
00:00 +18°C° 0 mm 1 mps 754 mmHg 59%
01:00 +18°C° 0 mm 1 mps 754 mmHg 60%
02:00 +18°C° 0 mm 1 mps 754 mmHg 61%
03:00 +16°C° 0 mm 1 mps 754 mmHg 62%
04:00 +18°C° 0 mm 1 mps 754 mmHg 63%
05:00 +16°C° 0 mm 0 mps 754 mmHg 63%
06:00 +17°C° 0 mm 0 mps 755 mmHg 63%
07:00 +19°C° 0 mm 0 mps 755 mmHg 58%
08:00 +21°C° 0 mm 0 mps 755 mmHg 52%
09:00 +23°C° 0 mm 0 mps 755 mmHg 46%
10:00 +24°C° 0 mm 0 mps 754 mmHg 42%
11:00 +25°C° 0 mm 0 mps 754 mmHg 38%
12:00 +28°C° 0 mm 1 mps 754 mmHg 34%
13:00 +29°C° 0 mm 1 mps 754 mmHg 33%
14:00 +29°C° 0 mm 1 mps 753 mmHg 32%
15:00 +29°C° 0 mm 1 mps 753 mmHg 31%
16:00 +29°C° 0 mm 1 mps 753 mmHg 34%
17:00 +28°C° 0 mm 1 mps 753 mmHg 37%
18:00 +28°C° 0 mm 1 mps 752 mmHg 39%
19:00 +26°C° 0 mm 1 mps 752 mmHg 41%
20:00 +25°C° 0 mm 1 mps 752 mmHg 43%
21:00 +23°C° 0 mm 1 mps 752 mmHg 44%
22:00 +23°C° 0 mm 1 mps 752 mmHg 45%
23:00 +22°C° 0 mm 1 mps 752 mmHg 47%

28 July, Wednesday

Time Temperature Precipitation Wind Pressure Humidity
00:00 +22°C° 0 mm 1 mps 752 mmHg 48%
01:00 +21°C° 0 mm 1 mps 752 mmHg 49%
02:00 +20°C° 0 mm 1 mps 752 mmHg 51%
03:00 +19°C° 0 mm 1 mps 752 mmHg 53%
04:00 +20°C° 0 mm 1 mps 752 mmHg 54%
05:00 +20°C° 0 mm 1 mps 752 mmHg 55%
06:00 +20°C° 0 mm 1 mps 752 mmHg 57%
07:00 +22°C° 0 mm 1 mps 752 mmHg 52%
08:00 +24°C° 0 mm 1 mps 752 mmHg 46%
09:00 +26°C° 0 mm 1 mps 752 mmHg 41%
10:00 +28°C° 0 mm 2 mps 752 mmHg 38%
11:00 +29°C° 0 mm 2 mps 752 mmHg 35%
12:00 +30°C° 0 mm 2 mps 752 mmHg 32%
13:00 +30°C° 0 mm 2 mps 751 mmHg 31%
14:00 +30°C° 0 mm 2 mps 751 mmHg 30%
15:00 +30°C° 0 mm 2 mps 751 mmHg 29%
16:00 +30°C° 0 mm 2 mps 750 mmHg 33%
17:00 +29°C° 0 mm 2 mps 750 mmHg 37%
18:00 +28°C° 0 mm 2 mps 750 mmHg 41%
19:00 +27°C° 0 mm 2 mps 750 mmHg 42%
20:00 +25°C° 0 mm 2 mps 750 mmHg 43%
21:00 +24°C° 0 mm 2 mps 750 mmHg 44%
22:00 +23°C° 0 mm 2 mps 750 mmHg 45%
23:00 +23°C° 0 mm 2 mps 750 mmHg 46%
Show more